Regional Weather Roundup
Issued by NWS

Home | Current Version | Previous Version | Text Only | Print | Product List | Glossary Off
Versions: 1 2 3 4 5 6 7 8 9 10 11 12 13 14 15 16 17 18 19 20 21 22 23 24 25 26 27 28 29 30 31 32 33 34 35 36 37 38 39 40 41 42 43 44 45 46 47 48 49 50

000
ASUS43 KDMX 211701
RWRIA

WEATHER ROUNDUP FOR IOWA
NATIONAL WEATHER SERVICE DES MOINES IA
1100 AM CST WED FEB 21 2018

NOTE: "FAIR" INDICATES FEW OR NO CLOUDS BELOW 12,000 FEET WITH NO
SIGNIFICANT WEATHER AND/OR OBSTRUCTIONS TO VISIBILITY.

* - THESE STATIONS ARE NOT NWS STATIONS...THUS NOT UNDER NWS
QUALITY CONTROL.  THEY ALSO DO NOT REPORT WEATHER SUCH
AS PRECIPITATION OR FOG.

IAZ001>003-012>014-020>022-031>034-043>046-211800-
   NORTHWEST IOWA

CITY           SKY/WX    TMP DP  RH WIND       PRES   REMARKS
CARROLL *      CLOUDY    16   7  67 CALM      30.64F
CHEROKEE *     SUNNY     15   6  70 CALM      30.65S
DENISON *      CLOUDY    16   5  62 N5        30.64F WCI   9
LE MARS *      SUNNY     10   1  67 S5        30.65R WCI   2
ORANGE CITY *  SUNNY      9   3  78 CALM      30.61S
SHELDON *      SUNNY     10   1  67 SW3       30.60S
SIOUX CITY     SUNNY     11   4  73 CALM      30.67R
SPENCER        MIX PCPN  11   4  73 SW3       30.63R
STORM LAKE *   SUNNY     16   5  62 CALM      30.61S
$$

IAZ055>058-069>071-079>083-090>094-211800-
   SOUTHWEST IOWA

CITY           SKY/WX    TMP DP  RH WIND       PRES   REMARKS
ATLANTIC *     CLOUDY    16   7  67 NE6       30.64S WCI   7
AUDUBON *      CLOUDY    16   9  73 CALM      30.63S
CLARINDA *     CLOUDY    18  12  79 NE10      30.66S WCI   6
COUNCIL BLFS * CLOUDY    16   9  73 NE8       30.63F WCI   5
CRESTON *      CLOUDY    18  12  79 N12       30.62R WCI   5
HARLAN  *      CLOUDY    16   9  73 VRB3      30.67F
LAMONI         MOSUNNY   19  12  74 NE10      30.60R WCI   7
RED OAK *      CLOUDY    18   9  68 N8        30.65S WCI   7
SHENANDOAH *   CLOUDY    18   9  68 NE9       30.66S WCI   6
$$

IAZ047>049-059>061-072>074-084-211800-
   CENTRAL IOWA

CITY           SKY/WX    TMP DP  RH WIND       PRES   REMARKS
AMES           CLOUDY    18   9  68 NE6       30.65S WCI  10
ANKENY *       MOSUNNY   18  12  79 NE9       30.66F WCI   6
BOONE *        MOSUNNY   16  10  79 MISG      30.63S
CHARITON *     CLOUDY    18  12  79 N10       30.62R WCI   6
DES MOINES     CLOUDY    18   9  68 N13       30.64F WCI   5
GRINNELL*      MOSUNNY   18  13  81 N13       30.62S WCI   5
KNOXVILLE *    MOSUNNY   18  10  73 N10       30.62R WCI   6
MARSHALLTOWN   MOSUNNY   17   9  70 N8        30.63F WCI   7
NEWTON *       CLOUDY    18  12  79 N14       30.63S WCI   4
PELLA *        MOSUNNY   19  12  74 N7        30.64S WCI  10
PERRY *        FAIR      17  10  74 N6        30.65F WCI   8
$$

IAZ004>006-015-016-023>025-035-036-211800-
   NORTH CENTRAL IOWA

CITY           SKY/WX    TMP DP  RH WIND       PRES   REMARKS
ALGONA *       CLOUDY    14 N/A N/A CALM      30.63S
CLARION *      CLOUDY    14   9  79 CALM      30.64S
ESTHERVILLE    CLOUDY    11   3  70 CALM      30.62R
FORT DODGE *   CLOUDY    20   7  57 CALM      30.64S
MASON CITY     CLOUDY    15   8  73 VRB5      30.64S WCI   8
FOREST CITY *  FAIR      18   9  68 CALM      30.63S
WEBSTER CITY * CLOUDY    14   5  67 CALM      30.63S
IOWA FALLS *   FAIR      17   9  70 NE3       30.65R
$$

IAZ007>011-017>019-026>030-037>042-050>054-066-211800-
   NORTHEAST IOWA

CITY           SKY/WX    TMP DP  RH WIND       PRES   REMARKS
CEDAR RAPIDS   FAIR      21   8  57 N10       30.60F WCI  10
CHARLES CITY * FAIR      16  10  79 NW6       30.63S WCI   7
CLINTON *        N/A     24  16  71 N10       30.60  WCI  14
DECORAH *      FAIR      16   7  67 VRB6      30.61R WCI   7
DUBUQUE        FAIR      19   9  65 N8        30.59R WCI   9
MONTICELLO *   FAIR      19  10  68 N12       30.61F WCI   7
OELWEIN *      FAIR      16  10  79 N7        30.63S WCI   6
WATERLOO       FAIR      17   8  67 N7        30.64S WCI   8
$$

IAZ064-065-067-068-078-211800-
   EAST CENTRAL IOWA

CITY           SKY/WX    TMP DP  RH WIND       PRES   REMARKS
DAVENPORT      FAIR      24  15  68 N10       30.61S WCI  14
IOWA CITY      FAIR      23   9  55 N9        30.63F WCI  13
MT. PLEASANT * MOSUNNY   23  14  68 N12       30.61R WCI  12
MUSCATINE *    FAIR      25  14  63 N10       30.63S WCI  15
QUAD CITIES    FAIR      25  15  66 NW12      30.59F WCI  14
$$

IAZ062-063-075>077-085>089-095>099-211800-
   SOUTHEAST IOWA

CITY           SKY/WX    TMP DP  RH WIND       PRES   REMARKS
BURLINGTON     CLOUDY    25  16  68 N9        30.59R WCI  15
FAIRFIELD *    CLOUDY    21  12  68 N12G18    30.61R WCI   9
FORT MADISON * PTSUNNY   25  18  74 N12       30.59R WCI  14
KEOKUK *       CLOUDY    25  18  74 N9G15     30.58R WCI  15
OSKALOOSA *    FAIR      19  14  80 N8        30.63R WCI   9
OTTUMWA          N/A     20  13  74 N10       30.62R WCI   9
WASHINGTON *   MOSUNNY   21  16  79 N10       30.63R WCI  10
$$

ABBREVIATIONS USED IN REMARKS
   TC - TEMPERATURES IN CELSIUS
  WCI - WIND CHILL INDEX
   HX - HEAT INDEX
  VSB - VISIBILITY
$$





USA.gov is the U.S. government's official web portal to all federal, state and local government web resources and services.